Regional Weather Roundup
Issued by NWS

Home | Current Version | Previous Version | Text Only | Print | Product List | Glossary On
Versions: 1 2 3 4 5 6 7 8 9 10 11 12 13 14 15 16 17 18 19 20 21 22 23 24 25 26 27 28 29 30 31 32 33 34 35 36 37 38 39 40 41 42 43 44 45 46 47 48 49 50
000
ASUS43 KTOP 211008
RWRKS

WEATHER ROUNDUP FOR KANSAS
NATIONAL WEATHER SERVICE GOODLAND KS
500 AM CDT MON APR 21 2014

NOTE:  "FAIR" INDICATES FEW OR NO CLOUDS BELOW 12,000 FEET WITH NO
SIGNIFICANT WEATHER AND/OR OBSTRUCTIONS TO VISIBILITY.

KSZ001>006-013>018-027>032-041>047-211100-
NORTHWEST KANSAS

CITY           SKY/WX    TMP DP  RH WIND       PRES   REMARKS
GOODLAND       CLEAR     48  43  82 N15       30.07R
HAYS           MOCLDY    54  52  94 N7        29.98R
HILL CITY      MOCLDY    54  51  90 NE7       30.00R
RUSSELL        PTCLDY    52  49  89 SW6       29.95R
$$

KSZ061>065-074>080-084>089-211100-
SOUTHWEST KANSAS

CITY           SKY/WX    TMP DP  RH WIND       PRES   REMARKS
DODGE CITY     CLOUDY    56  53  90 W7        29.99S
ELKHART          N/A    N/A N/A N/A MISG        N/A
GARDEN CITY    CLOUDY    55  53  93 W8        30.00R FOG
GREAT BEND     CLOUDY    54  48  82 CALM      29.97S
LIBERAL        CLEAR     55  50  82 CALM      30.00S
PRATT          MOCLDY    50  50 100 CALM      29.98S
$$

KSZ066>073-081>083-090>101-211100-
SOUTHEAST KANSAS

CITY           SKY/WX    TMP DP  RH WIND       PRES   REMARKS
CHANUTE        LGT RAIN  60  58  92 SW3       30.00S
COFFEYVILLE    MOCLDY    60  58  92 SE3       30.00F
HUTCHINSON     MOCLDY    53  51  93 CALM      29.97R FOG
MEDICINE LODGE   N/A     58  55  90 S5        29.96F
NEWTON         CLOUDY    54  46  76 S6        30.01S
PARSONS        CLOUDY    61  57  87 S7        30.00F
WICHITA INTL   CLOUDY    53  52  96 SE5       29.97F FOG
WICHITA JABRA  CLOUDY    56  54  93 S6        29.98F
WICHITA MCCONL MOCLDY    56  56 100 SE6       29.98F
WINFIELD       CLOUDY    59  56  89 NE3       30.00R
$$

KSZ007>012-019>026-033>040-048>060-102>105-211100-
NORTHEAST KANSAS

CITY           SKY/WX    TMP DP  RH WIND       PRES   REMARKS
CONCORDIA      CLOUDY    58  55  90 NW7       30.00R
EMPORIA        CLOUDY    59  56  89 S9        29.97F
LAWRENCE       CLOUDY    62  56  80 S6        29.98S
MANHATTAN      CLOUDY    60  56  86 SW8       29.95S
OLATHE IND     LGT RAIN  61  56  83 S7        30.00S
OLATHE EXE     CLOUDY    62  55  77 S8        29.98F
SALINA         PTCLDY    53  50  89 S6        29.97R
TOPEKA BILLARD MOCLDY    61  57  87 S5        29.97F
TOPEKA FORBES  CLOUDY    59  55  87 S6        29.97S
$$



USA.gov is the U.S. government's official web portal to all federal, state and local government web resources and services.